Location: Kalberh�ni
(46.4610°N, 7.2453°E)
Time: 05:01:10
(UTC+00:00)

Cosmos 2333 Rocket - Pass Details

Date: 29 October 2021
Orbit: 837 x 865 km, 70.8° (Epoch: 05 December)

Event Time Altitude Azimuth Distance (km) Brightness Sun altitude
Exits shadow 02:32:00 34° 74° (ENE) 1,394 3.7 -37.3°
Drops below altitude 10° 02:36:18 10° 119° (ESE) 2,503 5.0 -36.6°
Sets 02:38:57 0° 128° (SE) 3,437 5.7 -36.2°
